Regional Weather Roundup
Issued by NWS Little Rock, AR

Home | Current Version | Previous Version | Text Only | Print | Product List | Glossary On
Versions: 1 2 3 4 5 6 7 8 9 10 11 12 13 14 15 16 17 18 19 20 21 22 23 24 25 26 27 28 29 30 31 32 33 34 35 36 37 38 39 40 41 42 43 44 45 46 47 48 49 50
000
ASUS44 KLZK 241305
RWRLZK

WEATHER ROUNDUP FOR ARKANSAS
NATIONAL WEATHER SERVICE LITTLE ROCK AR
800 AM CDT MON JUL 24 2017

NOTE: "FAIR" INDICATES FEW OR NO CLOUDS BELOW 12,000 FEET WITH NO
SIGNIFICANT WEATHER AND/OR OBSTRUCTIONS TO VISIBILITY.

ARZ001-003-010-029-241400-
NORTHWEST ARKANSAS

CITY           SKY/WX    TMP DP  RH WIND       PRES   REMARKS
FAYETTEVILLE   SUNNY     68  68 100 CALM      30.01R
FORT SMITH     CLOUDY    75  73  93 SW5       29.98R
HARRISON       SUNNY     76  69  79 W7        30.00R
BENTONVILLE    SUNNY     73  68  83 CALM      30.01S
ROGERS         SUNNY     74  69  85 W3        30.01R
SILOAM SPGS    SUNNY     72  68  88 CALM      30.00S
HIGHFILL       SUNNY     74  70  87 CALM      30.00R
SPRINGDALE       N/A     73  72  94 CALM      30.02R
$$

ARZ004-005-016-241400-
NORTH CENTRAL ARKANSAS

CITY           SKY/WX    TMP DP  RH WIND       PRES   REMARKS
BATESVILLE     MOSUNNY   75  72  88 CALM      29.95S
FLIPPIN        PTSUNNY   75  64  69 SW5       29.95R
MTN HOME       CLOUDY    74  71  91 SW5       29.97R
$$

ARZ040-041-241400-
WEST CENTRAL ARKANSAS

CITY           SKY/WX    TMP DP  RH WIND       PRES   REMARKS
MENA           CLOUDY    73  73 100 CALM      29.99R
MOUNT IDA      PTSUNNY   74  70  87 CALM      29.96R
$$

ARZ009-017-025-026-028-241400-
NORTHEAST ARKANSAS

CITY           SKY/WX    TMP DP  RH WIND       PRES   REMARKS
JONESBORO      MOSUNNY   77  73  87 CALM      29.94R
WALNUT RIDGE   CLOUDY    75  72  88 SW5       29.95R
BLYTHEVILLE    PTSUNNY   76  74  93 SW5       29.95R
$$

ARZ022-023-033-042-044-241400-
CENTRAL ARKANSAS

CITY           SKY/WX    TMP DP  RH WIND       PRES   REMARKS
LITTLE ROCK    PTSUNNY   74  74 100 W6        29.95R
N LITTLE ROCK    N/A     76  73  91 CALM      29.94R
CONWAY           N/A     77  73  88 SW5       29.94S
SEARCY         MOSUNNY   77  75  93 S5        29.96R
HOT SPRINGS    MOSUNNY   75  74  96 S3        29.96R
RUSSELLVILLE   MOSUNNY   76  73  91 NW5       29.96R
CLINTON        FAIR      75  73  94 CALM      29.96R
$$

ARZ036-241400-
EAST ARKANSAS

CITY           SKY/WX    TMP DP  RH WIND       PRES   REMARKS
WEST MEMPHIS   CLOUDY    76  75  97 CALM      29.94R
$$

ARZ050-053-066-070-073-241400-
SOUTHWEST ARKANSAS

CITY           SKY/WX    TMP DP  RH WIND       PRES   REMARKS
ARKADELPHIA    FAIR      75  73  93 VRB3      29.95R
CAMDEN         MOSUNNY   77  68  73 CALM      29.96R
TEXARKANA      CLOUDY    76  73  91 CALM      29.96R
EL DORADO      CLOUDY    74  73  97 CALM      29.97R
DE QUEEN       CLOUDY    75  74  96 CALM      29.93R
$$

ARZ056-057-069-241400-
SOUTHEAST ARKANSAS

CITY           SKY/WX    TMP DP  RH WIND       PRES   REMARKS
PINE BLUFF     SUNNY     76  72  87 CALM      29.95R
STUTTGART      PTSUNNY   75  63  64 S3        29.96R
MONTICELLO     CLOUDY    76  72  87 CALM      29.95R

$$





USA.gov is the U.S. government's official web portal to all federal, state and local government web resources and services.